N3LF Weather Reports


Display with metric or nautical units.
time (UTC)temp
F
wind
direction
speed
MPH
gust
MPH
rain 1hr
in
rain 24hr
in
rain mn
in
humidity
%
barometer
mb
20260906115427 73 268 0.0 0.0 0.00 0.00 0.00 99 1015.5
20260906114927 73 270 0.0 1.0 0.00 0.00 0.00 99 1015.5
20260906114427 73 271 0.0 2.0 0.00 0.00 0.00 99 1015.4
20260906113923 73 247 0.0 0.0 0.00 0.00 0.00 99 1015.4
20260906113421 73 246 0.0 0.0 0.00 0.00 0.00 99 1015.5
20260906112917 73 240 0.0 0.0 0.00 0.00 0.00 99 1015.6
20260906112412 73 242 0.0 0.0 0.00 0.00 0.00 99 1015.3
20260906111908 73 242 0.0 0.0 0.00 0.00 0.00 99 1015.2
20260906111407 73 217 1.0 1.0 0.00 0.00 0.00 99 1015.2
20260906110902 73 265 0.0 0.0 0.00 0.00 0.00 99 1014.9
20260906110357 73 265 0.0 0.0 0.00 0.00 0.00 99 1014.8
20260906105856 73 21 0.0 0.0 0.00 0.00 0.00 98 1014.8
20260906105353 73 21 0.0 0.0 0.00 0.00 0.00 98 1014.8
20260906104848 73 21 0.0 0.0 0.00 0.00 0.00 98 1014.6
20260906104347 73 207 0.0 0.0 0.00 0.00 0.00 98 1014.7
20260906103845 73 208 0.0 0.0 0.00 0.00 0.00 99 1014.5
20260906103344 73 173 0.0 0.0 0.00 0.00 0.00 99 1014.6
20260906102840 73 168 0.0 0.0 0.00 0.00 0.00 98 1014.6
20260906102338 74 173 0.0 0.0 0.00 0.00 0.00 98 1014.5
20260906101834 74 173 0.0 0.0 0.00 0.00 0.00 98 1014.6
20260906101329 74 173 0.0 0.0 0.00 0.00 0.00 98 1014.3
20260906100825 74 171 0.0 0.0 0.00 0.00 0.00 97 1014.3
20260906100323 74 172 0.0 0.0 0.00 0.00 0.00 97 1014.2
20260906095819 74 170 0.0 0.0 0.00 0.00 0.00 97 1014.1
20260906095314 74 163 0.0 0.0 0.00 0.00 0.00 97 1014.1
20260906094814 74 109 0.0 0.0 0.00 0.00 0.00 98 1014.1
20260906094309 75 222 0.0 0.0 0.00 0.00 0.00 98 1014.2
20260906093805 75 216 0.0 0.0 0.00 0.00 0.00 98 1014.4
20260906093301 75 222 0.0 0.0 0.00 0.00 0.00 98 1014.3
20260906092756 74 207 0.0 0.0 0.00 0.00 0.00 98 1014.4
20260906092256 74 207 0.0 0.0 0.00 0.00 0.00 98 1014.5
20260906091752 74 208 0.0 0.0 0.00 0.00 0.00 98 1014.4
20260906091247 74 208 0.0 0.0 0.00 0.00 0.00 98 1014.4
20260906090744 75 208 0.0 0.0 0.00 0.00 0.00 98 1014.2
20260906090243 75 211 0.0 0.0 0.00 0.00 0.00 98 1014.3
20260906085742 75 211 0.0 0.0 0.00 0.00 0.00 98 1014.3
20260906085241 75 200 0.0 0.0 0.00 0.00 0.00 98 1014.1
20260906084737 75 211 0.0 0.0 0.00 0.00 0.00 98 1014.2
20260906084236 75 209 0.0 0.0 0.00 0.00 0.00 98 1014.0
20260906083731 75 200 0.0 0.0 0.00 0.00 0.00 98 1014.2
20260906083226 75 204 0.0 0.0 0.00 0.00 0.00 97 1014.1
20260906082722 75 211 0.0 0.0 0.00 0.00 0.00 97 1014.0
20260906082217 75 208 0.0 0.0 0.00 0.00 0.00 97 1014.1
20260906081713 75 208 0.0 0.0 0.00 0.00 0.00 97 1014.1
20260906081208 75 208 0.0 0.0 0.00 0.00 0.00 97 1014.0
20260906080704 76 208 0.0 0.0 0.00 0.00 0.00 97 1013.9
20260906080200 76 208 0.0 1.0 0.00 0.00 0.00 97 1014.0
20260906075700 76 208 0.0 0.0 0.00 0.00 0.00 96 1014.2
20260906075154 76 208 0.0 1.0 0.00 0.00 0.00 96 1014.3
20260906074650 76 208 0.0 0.0 0.00 0.00 0.00 96 1014.1
20260906074149 76 207 0.0 1.0 0.00 0.00 0.00 96 1014.2
20260906073644 76 218 0.0 0.0 0.00 0.00 0.00 96 1014.3
20260906073139 76 218 0.0 0.0 0.00 0.00 0.00 96 1014.4
20260906072634 76 218 0.0 0.0 0.00 0.00 0.00 97 1014.4
20260906072130 77 218 0.0 0.0 0.00 0.00 0.00 97 1014.4
20260906071626 76 208 0.0 1.0 0.00 0.00 0.00 97 1014.4
20260906071121 76 222 0.0 0.0 0.00 0.00 0.00 98 1014.4
20260906070617 76 209 0.0 1.0 0.00 0.00 0.00 99 1014.6
20260906070113 77 222 0.0 0.0 0.00 0.00 0.00 99 1014.7
20260906065612 77 222 0.0 0.0 0.00 0.00 0.00 99 1014.8
20260906065108 77 211 0.0 0.0 0.00 0.00 0.00 98 1014.8
20260906064603 77 208 1.0 1.0 0.00 0.00 0.00 98 1014.4
20260906064059 77 224 0.0 0.0 0.00 0.00 0.00 98 1014.4
20260906063554 77 211 0.0 0.0 0.00 0.00 0.00 98 1014.4
20260906063050 77 203 0.0 0.0 0.00 0.00 0.00 98 1014.7
20260906062545 77 210 0.0 1.0 0.00 0.00 0.00 98 1014.7
20260906062044 77 103 1.0 2.0 0.00 0.00 0.00 98 1014.7
20260906061541 77 237 0.0 0.0 0.00 0.00 0.00 99 1014.7
20260906061039 77 277 1.0 1.0 0.00 0.00 0.00 99 1014.6
20260906060536 77 217 0.0 1.0 0.00 0.00 0.00 99 1014.7
20260906060033 77 211 1.0 1.0 0.00 0.00 0.00 98 1014.5
20260906055529 77 54 1.0 1.0 0.00 0.00 0.00 98 1014.6
20260906055024 78 221 0.0 3.0 0.00 0.00 0.00 98 1014.6
20260906054524 78 213 1.0 2.0 0.00 0.00 0.00 98 1014.2
20260906054019 78 34 1.0 1.0 0.00 0.00 0.00 98 1014.6
20260906053516 78 214 0.0 0.0 0.00 0.00 0.00 98 1014.6
20260906053011 78 214 1.0 1.0 0.00 0.00 0.00 97 1014.5
20260906052507 78 214 0.0 1.0 0.00 0.00 0.00 97 1014.5
20260906052003 78 213 1.0 1.0 0.00 0.00 0.00 97 1014.5
20260906051459 78 213 0.0 0.0 0.00 0.00 0.00 97 1014.8
20260906050954 78 198 2.0 2.0 0.00 0.00 0.00 97 1014.8
20260906050454 79 26 1.0 2.0 0.00 0.00 0.00 96 1015.0
20260906045953 79 225 2.0 3.0 0.00 0.00 0.00 96 1014.8
20260906045452 78 221 0.0 2.0 0.00 0.00 0.00 96 1014.7
20260906044948 78 11 0.0 1.0 0.00 0.00 0.00 96 1014.7
20260906044443 78 17 1.0 2.0 0.00 0.00 0.00 96 1014.8
20260906043939 79 312 2.0 2.0 0.00 0.00 0.00 95 1014.6
20260906043435 79 262 0.0 2.0 0.00 0.00 0.00 95 1014.7
20260906042930 79 232 0.0 0.0 0.00 0.00 0.00 96 1014.6
20260906042429 79 229 0.0 0.0 0.00 0.00 0.00 96 1014.7
20260906041924 79 229 1.0 1.0 0.00 0.00 0.00 96 1014.6
20260906041421 79 225 1.0 1.0 0.00 0.00 0.00 96 1014.7
20260906040920 79 226 1.0 1.0 0.00 0.00 0.00 95 1014.7
20260906040415 79 229 0.0 0.0 0.00 0.00 0.00 95 1014.9
20260906035911 79 229 0.0 0.0 0.00 0.00 0.00 95 1014.7
20260906035407 79 301 0.0 2.0 0.00 0.00 0.00 95 1014.7
20260906034902 79 160 0.0 2.0 0.00 0.00 0.00 95 1014.9
20260906034401 79 123 2.0 3.0 0.00 0.00 0.00 96 1014.8
20260906033858 80 45 3.0 3.0 0.00 0.00 0.00 95 1014.7
20260906033357 80 34 0.0 0.0 0.00 0.00 0.00 94 1014.5
20260906032853 80 83 0.0 0.0 0.00 0.00 0.00 94 1014.5
20260906032349 80 84 0.0 0.0 0.00 0.00 0.00 93 1014.3
20260906031844 80 81 0.0 0.0 0.00 0.00 0.00 92 1014.4
20260906031339 80 72 0.0 0.0 0.00 0.00 0.00 91 1014.2
20260906030839 80 15 0.0 0.0 0.00 0.00 0.00 90 1014.1
20260906030335 80 15 0.0 0.0 0.00 0.00 0.00 90 1014.0
20260906025835 80 15 0.0 0.0 0.00 0.00 0.00 90 1013.9
20260906025329 80 15 0.0 0.0 0.00 0.00 0.00 90 1014.0
20260906024828 80 19 0.0 0.0 0.00 0.00 0.00 90 1013.8
20260906024327 81 20 0.0 0.0 0.00 0.00 0.00 90 1013.9
20260906023823 81 19 0.0 0.0 0.00 0.00 0.00 89 1014.0
20260906023318 81 19 0.0 0.0 0.00 0.00 0.00 87 1013.6
20260906022814 81 19 0.0 0.0 0.00 0.00 0.00 86 1013.8
20260906022309 82 19 0.0 0.0 0.00 0.00 0.00 86 1013.7
20260906021805 82 206 0.0 0.0 0.00 0.00 0.00 85 1013.6
20260906021304 82 206 0.0 0.0 0.00 0.00 0.00 84 1013.6
20260906020759 83 206 0.0 0.0 0.00 0.00 0.00 83 1013.4
20260906020258 84 206 0.0 0.0 0.00 0.00 0.00 80 1013.4
20260906015758 84 233 0.0 0.0 0.00 0.00 0.00 78 1013.3
20260906015257 84 223 0.0 1.0 0.00 0.00 0.00 77 1013.3
20260906014751 83 228 0.0 0.0 0.00 0.00 0.00 81 1013.2
20260906014247 83 234 0.0 0.0 0.00 0.00 0.00 81 1013.5
20260906013743 84 234 0.0 0.0 0.00 0.00 0.00 81 1013.2
20260906013243 84 228 0.0 0.0 0.00 0.00 0.00 79 1013.3
20260906012739 84 236 0.0 0.0 0.00 0.00 0.00 78 1013.4
20260906012234 85 236 0.0 0.0 0.00 0.00 0.00 77 1013.4
20260906011729 85 234 0.0 0.0 0.00 0.00 0.00 75 1013.3
20260906011228 85 262 0.0 1.0 0.00 0.00 0.00 75 1013.2
20260906010724 85 206 0.0 0.0 0.00 0.00 0.00 77 1013.1
20260906010220 86 206 0.0 1.0 0.00 0.00 0.00 75 1013.4
20260906005715 86 206 0.0 0.0 0.00 0.00 0.00 73 1013.2
20260906005214 87 206 0.0 1.0 0.00 0.00 0.00 73 1013.2
20260906004713 88 228 0.0 0.0 0.00 0.00 0.00 69 1013.4
20260906004209 88 241 0.0 0.0 0.00 0.00 0.00 67 1013.4
20260906003704 88 236 0.0 1.0 0.00 0.00 0.00 66 1013.3
20260906003200 88 234 0.0 1.0 0.00 0.00 0.00 68 1013.4
20260906002659 89 206 0.0 1.0 0.00 0.00 0.00 68 1013.5
20260906002154 90 228 1.0 2.0 0.00 0.00 0.00 63 1013.5
20260906001650 90 240 1.0 1.0 0.00 0.00 0.00 63 1013.6
20260906001149 90 237 0.0 1.0 0.00 0.00 0.00 63 1013.3
20260906000645 91 215 1.0 2.0 0.00 0.00 0.00 62 1013.3
20260906000140 91 229 1.0 2.0 0.00 0.00 0.00 63 1013.2
20260905235639 91 207 1.0 2.0 0.00 0.00 0.00 61 1013.3
20260905235134 91 229 0.0 2.0 0.00 0.00 0.00 61 1013.3
20260905234630 91 234 1.0 1.0 0.00 0.00 0.00 61 1013.3
20260905234126 92 235 0.0 1.0 0.00 0.00 0.00 61 1013.5
20260905233626 93 217 1.0 1.0 0.00 0.00 0.00 59 1013.3
20260905233120 94 213 1.0 2.0 0.00 0.00 0.00 57 1013.3
20260905232616 95 239 1.0 3.0 0.00 0.00 0.00 56 1013.4
20260905232112 95 245 2.0 2.0 0.00 0.00 0.00 55 1013.2
20260905231612 96 216 2.0 4.0 0.00 0.00 0.00 56 1013.4
20260905231108 96 277 2.0 3.0 0.00 0.00 0.00 54 1013.5
20260905230603 97 237 1.0 2.0 0.00 0.00 0.00 53 1013.2
20260905225600 98 253 2.0 3.0 0.00 0.00 0.00 53 1013.3
20260905225056 98 232 1.0 2.0 0.00 0.00 0.00 52 1013.2
20260905224555 97 297 2.0 2.0 0.00 0.00 0.00 51 1013.1
20260905224055 97 233 2.0 6.0 0.00 0.00 0.00 52 1013.2
20260905223553 98 242 1.0 2.0 0.00 0.00 0.00 52 1013.1
20260905223049 99 241 1.0 2.0 0.00 0.00 0.00 50 1013.1
20260905222548 98 242 2.0 3.0 0.00 0.00 0.00 52 1013.2
20260905222044 98 232 0.0 3.0 0.00 0.00 0.00 52 1013.3
20260905221540 99 185 4.0 6.0 0.00 0.00 0.00 51 1013.2
20260905221036 99 306 2.0 6.0 0.00 0.00 0.00 50 1013.3
20260905220531 100 288 4.0 6.0 0.00 0.00 0.00 48 1013.4
20260905220027 100 239 0.0 1.0 0.00 0.00 0.00 48 1013.4
20260905215526 101 229 2.0 3.0 0.00 0.00 0.00 48 1013.2
20260905215023 99 211 0.0 3.0 0.00 0.00 0.00 50 1013.1
20260905214518 100 303 1.0 4.0 0.00 0.00 0.00 48 1013.3
20260905214013 100 295 3.0 4.0 0.00 0.00 0.00 48 1013.3
20260905213509 100 230 0.0 3.0 0.00 0.00 0.00 46 1013.5
20260905213004 101 273 1.0 3.0 0.00 0.00 0.00 45 1013.5
20260905212459 101 351 2.0 3.0 0.00 0.00 0.00 46 1013.4
20260905211958 101 251 0.0 2.0 0.00 0.00 0.00 45 1013.5
20260905211454 101 10 2.0 3.0 0.00 0.00 0.00 48 1013.5
20260905210949 101 243 1.0 4.0 0.00 0.00 0.00 47 1013.5
20260905210445 101 211 1.0 3.0 0.00 0.00 0.00 48 1013.3
20260905205944 101 250 0.0 2.0 0.00 0.00 0.00 47 1013.5
20260905205439 101 349 1.0 2.0 0.00 0.00 0.00 45 1013.5
20260905204938 100 322 2.0 4.0 0.00 0.00 0.00 46 1013.6
20260905204434 100 237 1.0 4.0 0.00 0.00 0.00 46 1013.7
20260905203933 101 316 1.0 3.0 0.00 0.00 0.00 45 1013.8
20260905203428 101 234 2.0 3.0 0.00 0.00 0.00 47 1013.7
20260905202924 101 237 2.0 3.0 0.00 0.00 0.00 47 1014.1
20260905202419 101 192 2.0 2.0 0.00 0.00 0.00 47 1014.3
20260905201914 100 216 1.0 3.0 0.00 0.00 0.00 47 1014.2
20260905201410 99 358 2.0 6.0 0.00 0.00 0.00 49 1014.2
20260905200909 100 358 1.0 2.0 0.00 0.00 0.00 48 1014.2
20260905200405 101 316 2.0 3.0 0.00 0.00 0.00 45 1014.5
20260905195903 99 275 3.0 3.0 0.00 0.00 0.00 48 1014.4
20260905195359 100 166 2.0 3.0 0.00 0.00 0.00 48 1014.5
20260905194854 99 246 0.0 1.0 0.00 0.00 0.00 48 1014.5
20260905194354 98 261 0.0 3.0 0.00 0.00 0.00 50 1014.6
20260905193853 97 344 3.0 4.0 0.00 0.00 0.00 50 1014.7
20260905193348 98 255 1.0 3.0 0.00 0.00 0.00 51 1014.6
20260905192844 98 19 1.0 3.0 0.00 0.00 0.00 49 1014.5
20260905192340 98 13 2.0 4.0 0.00 0.00 0.00 48 1014.6
20260905191839 99 60 6.0 7.0 0.00 0.00 0.00 48 1014.8
20260905191338 102 17 1.0 2.0 0.00 0.00 0.00 46 1014.8
20260905190837 102 204 1.0 1.0 0.00 0.00 0.00 46 1014.8
20260905190336 100 264 1.0 3.0 0.00 0.00 0.00 49 1015.0
20260905185835 99 197 1.0 2.0 0.00 0.00 0.00 49 1015.1
20260905185331 100 204 0.0 2.0 0.00 0.00 0.00 46 1015.2
20260905184830 100 193 2.0 2.0 0.00 0.00 0.00 47 1015.3
20260905184329 102 146 0.0 1.0 0.00 0.00 0.00 51 1015.2
20260905183828 101 241 1.0 1.0 0.00 0.00 0.00 49 1015.4
20260905183323 98 17 1.0 3.0 0.00 0.00 0.00 50 1015.5
20260905182818 97 219 1.0 1.0 0.00 0.00 0.00 55 1015.5
20260905182318 96 123 2.0 2.0 0.00 0.00 0.00 54 1015.7
20260905181813 95 13 0.0 2.0 0.00 0.00 0.00 57 1015.8
20260905181312 97 9 2.0 3.0 0.00 0.00 0.00 56 1015.8
20260905180811 97 356 2.0 6.0 0.00 0.00 0.00 55 1016.0
20260905180307 99 51 0.0 2.0 0.00 0.00 0.00 51 1015.9
20260905175801 99 235 2.0 3.0 0.00 0.00 0.00 50 1016.1
20260905175256 99 217 0.0 2.0 0.00 0.00 0.00 50 1016.1
20260905174751 98 97 1.0 2.0 0.00 0.00 0.00 51 1016.0
20260905174247 96 73 0.0 1.0 0.00 0.00 0.00 53 1016.0
20260905173743 98 97 1.0 2.0 0.00 0.00 0.00 52 1016.3
20260905173239 97 82 1.0 3.0 0.00 0.00 0.00 53 1016.1
20260905172733 97 227 1.0 3.0 0.00 0.00 0.00 53 1016.2
20260905172232 95 76 1.0 4.0 0.00 0.00 0.00 54 1016.1
20260905171728 95 98 2.0 4.0 0.00 0.00 0.00 56 1016.2
20260905171224 97 13 2.0 8.0 0.00 0.00 0.00 56 1016.2
20260905170721 99 12 4.0 6.0 0.00 0.00 0.00 56 1016.3
20260905170222 97 40 0.0 1.0 0.00 0.00 0.00 54 1016.7
20260905165721 96 252 2.0 4.0 0.00 0.00 0.00 57 1016.5
20260905165216 96 64 2.0 3.0 0.00 0.00 0.00 56 1016.5
20260905164711 97 39 3.0 4.0 0.00 0.00 0.00 57 1016.6
20260905164211 97 185 1.0 4.0 0.00 0.00 0.00 57 1016.6
20260905163706 99 139 2.0 3.0 0.00 0.00 0.00 54 1016.7
20260905163203 97 184 1.0 1.0 0.00 0.00 0.00 55 1016.8
20260905162659 95 196 0.0 2.0 0.00 0.00 0.00 57 1016.8
20260905162158 94 303 1.0 2.0 0.00 0.00 0.00 60 1016.9
20260905161653 96 13 2.0 7.0 0.00 0.00 0.00 59 1016.9
20260905161151 95 45 2.0 4.0 0.00 0.00 0.00 59 1016.9
20260905160650 95 356 5.0 6.0 0.00 0.00 0.00 59 1016.8
20260905160149 93 233 1.0 4.0 0.00 0.00 0.00 62 1016.8
20260905155644 95 293 3.0 4.0 0.00 0.00 0.00 62 1016.9
20260905155143 93 321 1.0 4.0 0.00 0.00 0.00 64 1016.8
20260905154637 94 215 1.0 3.0 0.00 0.00 0.00 63 1017.0
20260905154133 93 276 0.0 3.0 0.00 0.00 0.00 64 1017.0
20260905153629 93 18 1.0 2.0 0.00 0.00 0.00 65 1017.0
20260905153124 92 328 4.0 6.0 0.00 0.00 0.00 69 1017.1
20260905152619 92 82 1.0 2.0 0.00 0.00 0.00 68 1017.0
20260905152113 91 358 2.0 3.0 0.00 0.00 0.00 72 1017.3
20260905151609 92 323 1.0 3.0 0.00 0.00 0.00 70 1017.2
20260905151104 91 299 0.0 3.0 0.00 0.00 0.00 73 1017.2
20260905150559 92 137 0.0 1.0 0.00 0.00 0.00 70 1017.3
20260905150058 92 234 1.0 2.0 0.00 0.00 0.00 72 1017.3
20260905145556 91 208 1.0 1.0 0.00 0.00 0.00 76 1017.5
20260905145055 91 73 0.0 1.0 0.00 0.00 0.00 75 1017.4
20260905144550 90 113 0.0 1.0 0.00 0.00 0.00 77 1017.4
20260905144049 89 59 1.0 2.0 0.00 0.00 0.00 78 1017.4
20260905143543 87 113 1.0 1.0 0.00 0.00 0.00 81 1017.5
20260905143039 87 52 2.0 6.0 0.00 0.00 0.00 81 1017.5
20260905142537 87 157 0.0 1.0 0.00 0.00 0.00 80 1017.5
20260905142032 87 92 0.0 2.0 0.00 0.00 0.00 80 1017.5
20260905141527 85 210 0.0 1.0 0.00 0.00 0.00 85 1017.6
20260905141024 83 143 0.0 2.0 0.00 0.00 0.00 87 1017.6
20260905140523 83 100 2.0 3.0 0.00 0.00 0.00 88 1017.6
20260905140022 84 47 1.0 2.0 0.00 0.00 0.00 86 1017.3
20260905135518 85 261 0.0 0.0 0.00 0.00 0.00 84 1017.6
20260905135014 84 261 0.0 0.0 0.00 0.00 0.00 84 1017.4
20260905134514 83 261 0.0 0.0 0.00 0.00 0.00 86 1017.4
20260905134013 82 265 1.0 1.0 0.00 0.00 0.00 89 1017.5
20260905133508 80 245 0.0 0.0 0.00 0.00 0.00 93 1017.5
20260905133002 78 242 0.0 0.0 0.00 0.00 0.00 99 1017.4
20260905132457 77 241 0.0 0.0 0.00 0.00 0.00 99 1017.6
20260905131957 76 239 0.0 0.0 0.00 0.00 0.00 99 1017.5
20260905131453 75 238 0.0 0.0 0.00 0.00 0.00 99 1017.5
20260905130948 75 238 0.0 0.0 0.00 0.00 0.00 99 1017.4
20260905130447 75 238 0.0 0.0 0.00 0.00 0.00 99 1017.5
20260905125947 74 238 0.0 0.0 0.00 0.00 0.00 99 1017.5
20260905125442 74 238 0.0 0.0 0.00 0.00 0.00 99 1017.5
20260905124937 75 215 0.0 0.0 0.00 0.00 0.00 99 1017.6
20260905124434 74 234 0.0 0.0 0.00 0.00 0.00 99 1017.4
20260905123934 74 233 0.0 0.0 0.00 0.00 0.00 99 1017.7
20260905123430 74 234 0.0 0.0 0.00 0.00 0.00 99 1017.5
20260905122925 74 234 0.0 0.0 0.00 0.00 0.00 99 1017.4
20260905122425 74 233 0.0 0.0 0.00 0.00 0.00 99 1017.4
20260905121921 73 233 0.0 0.0 0.00 0.00 0.00 99 1017.3
20260905121416 73 233 0.0 0.0 0.00 0.00 0.00 99 1017.2
20260905120915 73 233 0.0 0.0 0.00 0.00 0.00 99 1017.1
20260905120415 73 233 0.0 0.0 0.00 0.00 0.00 99 1017.2
20260905115910 73 233 0.0 0.0 0.00 0.00 0.00 99 1016.9